This demonstration page uses our WeatherBlox Daily Observations layout. Learn more.

Left ArrowRight Arrow

47.50024, -111.30081

Hourly Observations for November 29, 2015

Temp ( °F °C ) Dew Point ( °F °C ) Humidity (%) Winds ( mph kmh ) Pressure ( in mb ) Visibility ( mi km ) Precip ( " mm )
12:53 am 00:53 Clear 12 -11.1 6 -14.4 77 77 SW 12 19 30.37 1028 10 16 0.00 0.00
1:53 am 01:53 Clear 9 -12.8 4 -15.6 80 80 SW 12 19 30.36 1028 10 16 0.00 0.00
2:53 am 02:53 Clear 10 -12.2 4 -15.6 76 76 WSW 12 19 30.37 1028 10 16 0.00 0.00
3:53 am 03:53 Clear 8 -13.3 3 -16.1 80 80 WSW 10 17 30.36 1028 10 16 0.00 0.00
4:53 am 04:53 Clear 9 -12.8 3 -16.1 77 77 SW 9 15 30.37 1029 10 16 0.00 0.00
5:53 am 05:53 Clear 9 -12.8 4 -15.6 80 80 SW 8 13 30.38 1029 10 16 0.00 0.00
6:53 am 06:53 Clear 7 -13.9 2 -16.7 80 80 WSW 10 17 30.38 1029 10 16 0.00 0.00
7:53 am 07:53 Sunny 10 -12.2 3 -16.1 73 73 SW 15 24 30.39 1029 10 16 0.00 0.00
8:53 am 08:53 Sunny 13 -10.6 5 -15 70 70 SW 10 17 30.36 1028 10 16 0.00 0.00
9:53 am 09:53 Sunny 18 -7.8 9 -12.8 68 68 SW 16 26 30.35 1028 10 16 0.00 0.00
10:53 am 10:53 Sunny 19 -7.2 10 -12.2 68 68 SW 14 22 30.33 1027 10 16 0.00 0.00
11:53 am 11:53 Sunny 22 -5.6 11 -11.7 63 63 undefined N/A 30.31 1027 10 16 0.00 0.00
12:53 pm 12:53 Sunny 24 -4.4 13 -10.6 62 62 SW 13 20 30.28 1025 10 16 0.00 0.00
1:53 pm 13:53 Sunny 24 -4.4 13 -10.6 62 62 SW 14 22 30.26 1025 10 16 0.00 0.00
2:53 pm 14:53 Sunny 24 -4.4 13 -10.6 62 62 WSW 7 11 30.24 1024 10 16 0.00 0.00
3:53 pm 15:53 Sunny 22 -5.6 13 -10.6 68 68 WSW 7 11 30.26 1025 10 16 0.00 0.00
4:53 pm 16:53 Clear 12 -11.1 6 -14.4 77 77 WSW 10 17 30.27 1025 10 16 0.00 0.00
5:53 pm 17:53 Clear 16 -8.9 8 -13.3 71 71 SW 10 17 30.26 1025 10 16 0.00 0.00
6:53 pm 18:53 Clear 13 -10.6 7 -13.9 77 77 WSW 10 17 30.26 1025 10 16 0.00 0.00
7:53 pm 19:53 Clear 16 -8.9 8 -13.3 71 71 SW 10 17 30.25 1024 10 16 0.00 0.00
8:53 pm 20:53 Clear 16 -8.9 8 -13.3 71 71 SW 13 20 30.23 1024 10 16 0.00 0.00
9:53 pm 21:53 Clear 14 -10 7 -13.9 73 73 SW 14 22 30.22 1023 10 16 0.00 0.00
10:53 pm 22:53 Clear 11 -11.7 6 -14.4 81 81 SW 9 15 30.22 1024 10 16 0.00 0.00
11:53 pm 23:53 Clear 12 -11.1 7 -13.9 80 80 SW 12 19 30.20 1023 10 16 0.00 0.00

Powered by AerisWeather